Regional Weather Roundup
Issued by NWS Upton, NY

Current Version | Previous Version | Text Only | Print | Product List | Glossary On
Versions: 1 2 3 4 5 6 7 8 9 10 11 12 13 14 15 16 17 18 19 20 21 22 23 24 25 26 27
000 ASUS41 KOKX 252105 RWROKX REGIONAL WEATHER ROUNDUP NATIONAL WEATHER SERVICE NEW YORK NY 500 PM EDT SAT OCT 25 2014 NOTE: "FAIR" INDICATES FEW OR NO CLOUDS BELOW 12,000 FEET WITH NO SIGNIFICANT WEATHER AND/OR OBSTRUCTIONS TO VISIBILITY. NYZ071-072-176-178-NJZ106-104-252200- NEW YORK CITY METRO AREA CITY SKY/WX TMP DP RH WIND PRES REMARKS CENTRAL PARK CLEAR 66 43 43 VRB3 29.68 LAGUARDIA APRT PTCLDY 67 43 41 SW16 29.65F KENNEDY INTL PTCLDY 65 46 50 SW18 29.68F NEWARK/LIBERTY MOSUNNY 67 43 41 SW17 29.66F BRNX BOT. GARD N/A 68 41 37 SW10 29.67R TETERBORO SUNNY 68 42 38 W9 29.64F $$ NYZ177-179-078>081-252200- LONG ISLAND NEW YORK CITY SKY/WX TMP DP RH WIND PRES REMARKS FARMINGDALE CLEAR 64 44 48 SW12 29.67F ISLIP PTCLDY 63 43 48 SW8 29.65F SHIRLEY CLEAR 63 45 51 SW9 29.68F WESTHAMPTON CLEAR 62 44 51 W10 29.68F MONTAUK POINT N/A 62 46 55 SW8 29.67F $$ NYZ052-065-067-252200- HUDSON VALLEY CITY SKY/WX TMP DP RH WIND PRES REMARKS WHITE PLAINS CLEAR 65 41 41 S5 29.64F NEWBURGH CLEAR 63 45 51 W14G23 29.65F MONTGOMERY CLEAR 65 42 43 SW12 29.63F POUGHKEEPSIE CLEAR 65 42 43 SW7 29.63F ALBANY MOCLDY 61 45 55 SE5 29.60F $$ NJZ001-105-106-008-010-013-015-019>022-104-252200- NEW JERSEY CITY SKY/WX TMP DP RH WIND PRES REMARKS NEWARK/LIBERTY MOSUNNY 67 43 41 SW17 29.66F TETERBORO SUNNY 68 42 38 W9 29.64F CALDWELL SUNNY 67 42 40 SW9 29.66F MORRISTOWN SUNNY 66 43 42 W9G20 29.67F SOMERVILLE SUNNY 68 42 38 MISG 29.66F SUSSEX SUNNY 68 42 38 SW9 29.65F ANDOVER N/A 66 41 40 VRB6 29.66F TRENTON SUNNY 66 42 41 W13 29.69F MILLVILLE SUNNY 67 44 43 W13 29.74F ATLANTIC CITY SUNNY 67 43 41 W9 29.73F WRIGHTSTOWN SUNNY 67 44 43 W10 29.68F HAZE TOMS RIVER SUNNY 66 45 45 W8 29.71F BELMAR SUNNY 66 43 42 W10G17 29.69F $$ PAZ047>061-062-071-252200- EASTERN PENNSYLVANIA CITY SKY/WX TMP DP RH WIND PRES REMARKS PHILADELPHIA SUNNY 69 46 43 SW10 29.72F ALLENTOWN MOSUNNY 66 43 43 SW14G24 29.69F SCRANTON PTSUNNY 65 42 43 SW8 29.65F $$ CTZ002-004>006-009-010-012-RIZ004-006-007-MAZ004-011-015-252200- SOUTHERN NEW ENGLAND IN CT CITY SKY/WX TMP DP RH WIND PRES REMARKS BRADLEY INTL PTCLDY 65 41 41 W10 29.61F HARTFORD CLEAR 64 41 42 SW12G17 29.62F DANBURY CLEAR 63 41 44 SW8 29.65F WTRBRY/OXFORD PTCLDY 61 41 48 VRB6 29.64F BRIDGEPORT CLEAR 65 49 56 SW12 29.65F MERIDEN CLEAR 65 40 39 W10 29.63F NEW HAVEN PTCLDY 65 49 56 SW9G17 29.65F CHESTER FAIR 61 46 59 SW8 29.65F GROTON PTCLDY 59 49 69 SW14 29.64F WILLIMANTIC CLEAR 64 41 42 VRB6 29.62F IN RI CITY SKY/WX TMP DP RH WIND PRES REMARKS PROVIDENCE PTCLDY 63 42 46 SW10 29.62F BLOCK ISLAND PTCLDY 61 46 59 SW15 29.65F WESTERLY PTCLDY 61 46 57 SW9 29.65F IN MA CITY SKY/WX TMP DP RH WIND PRES REMARKS BOSTON PTCLDY 63 38 39 W10 29.58F WORCESTER CLEAR 58 43 57 W10 29.61F WESTFIELD CLEAR 64 41 42 SW12 29.61F PROVINCETOWN CLOUDY 61 5 11 SW13G18 29.59F NANTUCKET MOCLDY 59 47 64 W17G24 29.64F $$ ANZ330-335-338-340-345-350-353-355-252200- COASTAL MARINE OBSERVATIONS STATION/POSITION TIME SKY/WX TEMP WIND PRES VSBY WAVE AIR SEA DIR/SP/G HT/PER (UTC) (F) (DEG/KT/KT) (MB) (MI) (FT/S) NY HARB ENTRANCE NOT AVBL 4S FIRE IS 2100 62 N/A 3/ 4 20S FIRE ISLAND 2100 62 63 220/ 17/ 21 1005.0 2/ 4 23SW MTP 2100 N/A 3/ 4 HUDSON CANYON 2100 62 65 250/ 16/ 19 1006.6 3/ 5 EXECUTION ROCKS 2100 66 62 230/ 12/ 16 N/A WESTERN LI SOUND 2100 65 220/ 8/ 10 N/A 1 CENTRAL LI SOUND 2000 63 63 230/ 16/ 19 N/A 2/ 3 EASTERN LI SOUND 2000 61 63 240/ 17/ 21 N/A ROBBINS REEF 2100 67 260/ 18/ 21 1003.3 $$ >>>>>>>>>>>>>>>>>>>>>>>>>>>> KEY <<<<<<<<<<<<<<<<<<<<<<<<<<< > < > SKY/WX - SKY CONDITION/PRESENT WEATHER < > TMP - TEMPERATURE IN FAHRENHEIT < > DP - DEWPOINT IN FAHRENHEIT < > RH - RELATIVE HUMIDITY IN PERCENT < > WIND - DIRECTION AND SPEED IN MPH < > PRES - MEAN SEA LEVEL PRESSURE IN INCHES OF HG < > WCI - WIND CHILL INDEX < > VSB - VISIBILITY IN MILES < > HX - HEAT INDEX < > TC - TEMPERATURE IN CELSIUS < > VRB - VARIABLE WIND DIRECTION < > < >>>>>>>>>>>>>>>>>>>>>>>>>>>> KEY <<<<<<<<<<<<<<<<<<<<<<<<<<<

USA.gov is the U.S. government's official web portal to all federal, state and local government web resources and services.